DubaiSat-1

operational
NORAD ID: 35682 Int'l Des: 2009-041 Owner: EIAST Country: UAE
LEOCIRCULARRETROGRADESSO

DubaiSat-1について

説明を読み込み中...

リアルタイム位置

3D地球を読み込み中...

次回通過

高度履歴

Altitude vs Time

uPlot chart will show altitude changes over time

軌道要素

1 35682U 09041B 26063.34918018 .00001829 00000-0 27990-3 0 9999
2 35682 97.9864 197.8731 0011364 52.2168 308.0068 14.74889310889649
Epoch: Mar 4, 2026 • Age: 20 hours

現在のステータス

高度 645.3 km
速度 7.54 km/s
衛星直下点 49.07°N, 86.48°E
打ち上げ日 Jul 29, 2009
運用期間 16.5 years
タイプ other

技術仕様

分類 Payload
質量 190.00 kg
乾燥質量 190.00 kg
総質量 190.00 kg
長さ 1.30 m
直径 1.20 m
スパン 3.00 m
形状 Hex Cyl + 3 Pan
製造者 SATREC
バスタイプ Satrec
フェーズステータス In Orbit
所有者/国 EIAST/UAE

大規模コンステレーション

Loading constellations...